Temp
35 35 35 34 34 35 35 35 35 36 36 35 34 35 34 34 34 33 33 33 33 34 34 34 34 35 35 35 35 35 36 35 35 36 37 37 37 37 37 36 34 31 28 29 31 30 29 31 31 29 30 29 28 30 31 31 28 29 29 28 27 29 34
35 34 35 34 35 35 35 36 36 35 35 34 34 34 34 34 34 34 34 34 34 34 34 34 33 33 34 35 35 35 35 35 34 35 34 35 36 36 36 37 34 33 27 26 29 27 30 30 31 28 30 28 27 27 28 28 28 28 28 27 27 27 28
34 33 34 35 36 36 35 35 34 34 34 35 34 34 34 34 34 34 33 33 34 34 34 34 33 33 33 35 34 34 34 34 33 34 33 34 34 34 35 36 36 33 27 26 26 28 27 28 28 27 28 28 29 28 28 27 27 27 28 28 28 27 28
34 34 33 34 34 35 35 36 35 34 34 34 34 34 34 34 33 34 34 33 33 34 34 33 33 33 33 34 33 33 33 33 33 33 33 32 33 34 34 34 35 36 31 28 25 26 26 28 27 27 29 29 27 27 26 27 27 28 28 28 29 28 27
32 32 32 32 33 33 34 34 35 35 34 34 34 34 34 34 33 33 33 33 33 33 33 33 33 33 33 33 32 32 31 31 30 31 32 31 32 32 33 33 34 34 33 28 26 26 27 28 27 29 29 28 25 25 25 26 26 26 26 26 27 28 29
31 31 31 32 32 33 34 35 35 35 35 35 34 34 34 34 34 33 33 33 32 33 33 33 33 33 32 32 31 31 31 30 29 30 30 30 30 31 31 31 32 32 32 30 28 27 25 27 25 25 26 27 26 25 24 24 24 24 25 25 25 26 28
32 33 33 32 32 34 34 34 35 34 34 34 34 33 33 33 34 34 33 33 32 32 33 33 33 32 32 31 31 31 30 29 29 29 28 29 29 29 29 28 29 29 30 30 28 27 27 25 27 26 24 27 27 26 25 23 22 22 25 25 25 25 27
32 33 34 33 33 34 35 34 34 34 34 34 33 33 32 33 33 33 33 33 32 32 32 32 32 32 32 31 31 31 31 30 28 29 28 29 28 28 27 27 27 27 28 28 28 27 25 25 25 25 26 27 25 23 22 24 23 21 22 23 25 26 26
33 33 33 32 32 32 33 33 33 34 34 33 34 34 33 33 33 33 32 32 32 32 32 32 32 32 32 32 32 33 32 32 31 29 27 27 27 27 26 26 26 26 26 26 26 26 27 25 24 24 23 21 20 20 21 25 26 23 24 24 24 25 27
32 32 32 32 32 33 33 34 34 35 35 36 34 33 33 33 33 33 32 32 32 32 32 32 32 32 32 32 33 33 33 33 33 32 30 28 27 27 26 25 24 24 25 24 24 24 25 23 22 23 23 21 22 24 25 24 24 22 22 22 21 23 23
30 31 31 31 31 32 33 33 34 35 37 37 37 34 33 33 32 32 32 32 32 31 32 32 32 32 32 32 32 32 33 33 33 32 32 32 31 30 27 25 24 24 24 24 23 24 25 24 23 23 24 23 25 25 24 25 24 22 21 18 16 13 16
29 30 31 31 32 32 32 32 34 36 37 37 37 36 33 32 32 32 32 32 31 32 32 32 31 31 31 31 31 31 31 32 32 32 32 31 31 30 31 30 27 24 23 23 23 23 23 24 23 22 22 23 24 24 25 25 24 22 20 18 16 17 14
29 30 31 31 30 31 32 32 35 36 37 36 36 36 34 31 32 32 32 32 32 32 32 32 31 31 31 30 32 31 30 30 30 31 31 31 30 30 30 30 30 30 27 26 24 23 23 24 24 22 23 24 25 27 23 24 21 20 20 19 17 18 19
29 31 31 31 31 31 30 30 33 36 36 36 36 36 35 32 31 32 32 32 32 33 32 32 31 30 30 29 30 30 29 28 28 28 28 28 27 27 28 30 30 30 29 29 26 25 23 25 26 24 25 26 28 25 22 22 20 20 18 17 16 19 18
29 31 31 30 30 29 29 29 35 36 36 36 37 37 36 32 32 32 32 32 33 33 32 32 32 31 30 29 28 29 29 27 27 27 27 26 26 26 26 27 27 27 27 26 26 26 25 25 26 26 26 26 27 25 24 23 20 17 15 14 13 13 16
31 30 29 29 28 28 28 29 35 36 36 36 36 36 34 32 31 31 31 32 32 32 32 32 32 31 30 28 27 30 31 29 27 26 25 24 25 24 25 26 28 30 29 27 26 26 25 25 26 27 25 24 23 22 21 20 17 15 11 8 9 10 11
29 29 28 27 27 27 27 27 32 35 36 36 36 35 32 32 32 31 30 31 32 32 31 31 31 30 29 28 27 29 31 31 29 25 24 23 23 23 23 24 26 30 31 31 30 30 30 30 31 30 30 29 27 22 21 18 15 10 11 10 7 8 8
30 31 29 28 28 28 27 27 30 35 36 36 36 35 32 32 31 30 31 30 30 28 28 30 31 31 28 27 26 29 31 31 28 24 24 23 22 21 21 22 24 26 28 31 31 30 30 31 30 30 30 29 27 26 23 18 14 12 12 9 9 8 7
30 30 29 28 28 31 31 30 32 35 36 36 36 34 32 32 31 30 29 28 26 25 25 27 30 31 28 26 27 30 31 31 28 24 24 23 22 20 20 21 23 24 24 25 24 25 26 26 27 24 24 25 27 25 22 19 16 13 12 9 8 7 5
30 29 29 29 29 30 31 31 32 33 34 34 34 34 33 32 30 27 25 25 25 23 24 25 26 29 29 29 29 30 31 31 30 25 24 23 21 20 19 23 23 24 24 23 23 20 16 12 13 16 17 18 19 18 16 15 14 13 12 9 7 5 5
29 29 29 30 31 31 31 31 30 29 33 33 34 34 33 31 29 27 25 24 23 23 22 23 24 25 28 29 29 30 31 31 30 28 24 23 22 22 23 24 22 24 25 20 16 13 13 12 12 11 11 11 10 9 10 9 9 9 10 9 7 4 5
29 29 28 29 29 26 27 29 30 25 30 31 32 32 32 30 27 27 25 23 22 22 22 22 23 23 27 29 29 30 31 31 30 29 24 24 27 27 27 23 23 22 18 15 15 14 13 12 11 10 9 8 7 6 6 4 2 3 2 2 5 7 5
28 28 26 24 23 23 27 28 27 30 28 30 30 31 31 31 28 29 26 24 22 22 22 23 23 24 28 29 29 30 30 30 29 28 24 28 28 28 27 24 21 18 16 16 15 14 13 13 12 11 9 8 6 4 3 1 -1 -2 -1 1 1 2 -1
27 25 25 24 23 23 26 26 26 27 29 29 30 30 31 31 30 30 25 25 23 23 23 22 23 24 28 29 29 30 30 30 28 25 27 28 28 27 24 20 18 17 16 15 14 14 13 13 12 11 9 8 6 3 1 0 -1 -3 -6 -5 -5 -3 -0
26 24 24 24 24 26 26 27 26 25 27 29 29 30 30 31 30 30 28 24 24 24 23 25 26 27 29 29 29 30 30 29 27 28 28 28 27 24 20 18 17 16 16 14 13 13 13 12 10 10 7 5 2 0 -1 -3 -5 -6 -6 -7 -6 -4 -3
24 23 24 25 26 26 26 26 25 24 24 26 28 28 30 31 30 29 28 26 25 26 27 27 27 28 28 29 28 27 25 24 25 27 27 25 22 19 19 18 17 16 15 14 13 12 11 9 5 2 2 2 0 -1 -3 -5 -5 -6 -6 -7 -6 -6 -4
23 23 23 24 25 26 26 25 25 24 24 25 26 27 29 29 28 28 27 25 25 26 25 26 26 26 27 27 28 26 25 25 26 25 21 18 19 18 18 17 17 16 15 13 13 11 9 6 3 1 1 -0 -0 -2 -3 -2 -2 -4 -4 -4 -7 -5 -3
23 22 23 23 23 24 25 25 24 23 23 24 26 26 27 26 25 24 23 23 23 24 25 25 27 27 24 24 23 23 22 20 18 17 17 17 16 16 17 18 19 17 13 13 11 8 6 4 3 2 1 -0 -2 -2 -2 -1 -2 -3 -3 -3 -4 -4 -4
23 24 23 23 22 22 22 24 23 24 27 26 28 27 25 24 23 23 23 24 25 24 23 22 19 18 19 18 18 17 16 16 16 14 14 14 14 14 14 13 12 10 9 8 7 6 5 4 4 2 -0 -0 -1 -1 -0 -2 -3 -4 -6 -5 -6 -5 -4
24 24 24 22 23 23 22 22 24 28 29 29 29 29 28 27 27 26 25 26 26 23 19 19 18 17 16 16 16 15 13 13 12 12 11 12 14 12 11 10 9 9 8 8 7 6 5 4 3 2 1 -0 1 -0 -1 -0 4 -5 -6 -5 -7 -6 -5
28 28 28 25 22 24 27 28 28 28 29 29 30 29 29 28 28 28 27 26 22 20 19 17 16 15 15 15 14 13 13 12 12 11 10 9 10 11 10 9 7 6 6 5 5 4 3 2 3 3 2 2 1 0 -1 -1 -2 -5 -5 -6 -5 -5 -4
28 29 29 29 27 26 25 27 28 28 28 29 30 29 29 29 29 28 28 27 25 19 17 17 16 15 14 14 13 12 12 12 11 10 10 9 8 8 7 7 5 5 5 4 3 3 2 2 3 2 1 -0 -1 -1 -2 -2 -3 -5 -4 -3 -4 -4 -3
28 29 30 30 30 30 28 27 27 28 29 29 30 30 29 29 29 28 28 26 20 17 16 16 16 15 14 14 12 12 12 11 11 10 10 10 8 7 6 6 6 6 3 2 3 3 2 1 1 1 -0 -1 -1 -1 0 -2 -3 -4 -5 -5 -5 -5 -4
27 28 29 30 30 30 29 29 28 28 29 30 30 30 30 29 27 28 27 23 18 18 16 16 15 15 14 14 13 13 12 11 10 10 9 8 7 4 2 1 2 4 4 4 5 3 2 1 1 1 2 1 -1 -3 -2 -3 -4 -6 -5 -6 -7 -7 -8
21 26 28 28 28 30 30 29 29 29 29 30 30 30 30 29 24 21 20 20 19 19 17 16 15 14 14 14 13 12 12 11 10 10 9 6 3 1 1 2 3 3 4 3 2 2 1 -0 0 -2 -2 -0 -1 -3 -4 -4 -5 -7 -7 -8 -7 -8 -7
21 23 25 28 28 30 30 30 30 30 30 31 31 30 28 22 20 19 18 18 18 17 17 17 16 16 15 14 13 13 12 12 11 10 9 6 3 2 2 2 2 2 2 1 2 -0 1 -1 -4 -3 -3 -4 -4 -4 -4 -6 -7 -8 -7 -7 -8 -8 -8
MSLP
1007.88 1007.88 1007.92 1007.96 1007.92 1007.92 1007.92 1007.92 1007.80 1007.72 1007.80 1007.84 1007.92 1008.12 1008.36 1008.48 1008.60 1008.56 1008.48 1008.48 1008.60 1008.72 1008.80 1008.80 1008.72 1008.68 1008.72 1008.88 1009.24 1009.40 1009.60 1009.84 1010.04 1010.24 1010.40 1010.64 1010.88 1011.08 1011.36 1011.64 1011.92 1012.24 1013.28 1013.92 1013.88 1014.12 1014.52 1015.00 1015.44 1016.12 1016.36 1016.84 1017.20 1017.44 1017.56 1017.80 1018.04 1018.28 1018.52 1018.76 1018.96 1019.16 1019.28
1007.56 1007.52 1007.52 1007.64 1007.68 1007.60 1007.52 1007.48 1007.40 1007.36 1007.40 1007.48 1007.56 1007.72 1007.92 1008.16 1008.24 1008.28 1008.20 1008.20 1008.24 1008.24 1008.32 1008.40 1008.48 1008.44 1008.48 1008.60 1008.88 1009.12 1009.48 1009.76 1010.00 1010.20 1010.44 1010.56 1010.76 1010.92 1011.12 1011.32 1011.64 1012.00 1012.96 1013.88 1014.04 1014.40 1014.48 1014.92 1015.20 1015.76 1016.04 1016.40 1016.88 1017.28 1017.48 1017.72 1017.92 1018.16 1018.32 1018.52 1018.72 1018.96 1019.08
1007.20 1007.40 1007.44 1007.28 1007.08 1007.04 1007.08 1007.12 1007.24 1007.12 1007.08 1007.00 1007.08 1007.24 1007.36 1007.60 1007.88 1007.96 1007.92 1007.92 1007.88 1007.88 1007.92 1008.00 1008.04 1008.04 1008.16 1008.36 1008.60 1008.80 1009.08 1009.44 1009.76 1010.04 1010.24 1010.44 1010.64 1010.92 1011.12 1011.32 1011.32 1011.68 1012.76 1013.24 1013.92 1013.96 1014.36 1014.76 1015.24 1015.48 1015.76 1016.16 1016.52 1016.96 1017.28 1017.56 1017.80 1017.96 1018.12 1018.28 1018.48 1018.68 1018.80
1006.52 1006.56 1006.64 1006.68 1006.72 1006.72 1006.76 1006.68 1006.64 1006.80 1006.92 1006.84 1006.76 1006.80 1006.88 1007.08 1007.36 1007.56 1007.64 1007.64 1007.60 1007.56 1007.60 1007.60 1007.68 1007.72 1007.84 1008.00 1008.20 1008.44 1008.80 1009.12 1009.40 1009.72 1010.00 1010.28 1010.56 1010.88 1011.08 1011.24 1011.28 1011.20 1011.80 1012.76 1013.48 1014.00 1014.08 1014.52 1015.04 1015.56 1015.68 1016.00 1016.36 1016.80 1017.28 1017.52 1017.68 1017.80 1017.92 1018.04 1018.16 1018.32 1018.48
1006.36 1006.32 1006.28 1006.28 1006.24 1006.20 1006.28 1006.36 1006.32 1006.24 1006.28 1006.40 1006.56 1006.52 1006.48 1006.60 1006.80 1007.04 1007.16 1007.28 1007.36 1007.36 1007.36 1007.36 1007.32 1007.32 1007.56 1007.80 1008.00 1008.24 1008.60 1008.88 1009.24 1009.48 1009.76 1010.12 1010.44 1010.68 1010.92 1011.16 1011.12 1011.12 1011.32 1012.16 1012.80 1013.52 1014.12 1014.36 1014.92 1015.08 1015.36 1015.64 1016.16 1016.72 1017.12 1017.40 1017.52 1017.52 1017.64 1017.76 1017.84 1018.04 1018.16
1006.12 1006.12 1005.96 1005.80 1005.72 1005.64 1005.60 1005.72 1005.80 1005.92 1006.00 1006.00 1006.12 1006.16 1006.16 1006.20 1006.40 1006.56 1006.72 1006.84 1007.00 1007.16 1007.24 1007.24 1007.20 1007.20 1007.36 1007.56 1007.72 1007.96 1008.28 1008.72 1009.08 1009.36 1009.64 1009.92 1010.24 1010.56 1010.84 1011.08 1011.04 1011.04 1011.16 1011.52 1012.20 1012.76 1013.84 1014.36 1014.72 1015.24 1015.36 1015.40 1015.80 1016.36 1016.96 1017.32 1017.48 1017.48 1017.48 1017.56 1017.68 1017.76 1017.88
1005.80 1005.64 1005.52 1005.28 1005.20 1005.16 1005.16 1005.28 1005.40 1005.48 1005.60 1005.76 1005.92 1005.96 1006.00 1005.96 1005.96 1006.08 1006.28 1006.40 1006.56 1006.76 1006.96 1007.04 1007.04 1007.12 1007.24 1007.36 1007.44 1007.68 1008.00 1008.44 1008.92 1009.20 1009.44 1009.60 1009.96 1010.36 1010.76 1011.04 1011.04 1010.96 1011.08 1011.24 1011.84 1012.52 1012.88 1013.68 1014.28 1014.52 1015.12 1015.28 1015.52 1016.00 1016.44 1017.00 1017.44 1017.56 1017.36 1017.32 1017.40 1017.56 1017.60
1005.48 1005.16 1004.92 1004.72 1004.72 1004.68 1004.64 1004.72 1004.92 1005.04 1005.12 1005.24 1005.32 1005.48 1005.64 1005.72 1005.76 1005.80 1005.84 1005.88 1006.08 1006.32 1006.56 1006.72 1006.80 1006.92 1007.04 1007.16 1007.28 1007.48 1007.76 1008.16 1008.60 1008.92 1009.28 1009.52 1009.84 1010.24 1010.60 1010.92 1011.04 1011.08 1011.08 1011.24 1011.56 1011.96 1012.68 1013.16 1013.80 1014.44 1014.68 1014.88 1015.40 1016.08 1016.56 1016.68 1016.88 1017.04 1016.96 1017.04 1017.04 1017.08 1017.24
1005.20 1004.80 1004.44 1004.32 1004.32 1004.28 1004.28 1004.32 1004.44 1004.60 1004.68 1004.76 1004.84 1004.96 1005.16 1005.28 1005.32 1005.40 1005.52 1005.60 1005.72 1005.88 1006.08 1006.32 1006.52 1006.68 1006.80 1006.92 1007.08 1007.24 1007.52 1007.80 1008.12 1008.60 1009.00 1009.28 1009.60 1009.96 1010.32 1010.64 1010.96 1011.12 1011.08 1011.16 1011.40 1011.76 1012.16 1012.92 1013.52 1013.92 1014.32 1014.80 1015.08 1015.44 1015.76 1016.04 1016.16 1016.28 1016.20 1016.28 1016.56 1016.72 1016.72
1004.88 1004.40 1004.08 1003.92 1003.88 1003.92 1003.92 1003.92 1003.92 1003.92 1004.00 1004.20 1004.44 1004.64 1004.72 1004.76 1004.76 1004.88 1005.08 1005.24 1005.36 1005.48 1005.64 1005.88 1006.08 1006.28 1006.48 1006.68 1006.80 1006.96 1007.20 1007.44 1007.68 1008.00 1008.24 1008.64 1009.16 1009.52 1009.92 1010.20 1010.60 1010.88 1010.96 1011.00 1011.16 1011.32 1011.44 1012.20 1012.72 1013.08 1013.48 1013.84 1014.24 1014.84 1015.56 1015.80 1015.88 1016.04 1015.92 1015.96 1016.16 1016.36 1016.52
1004.60 1004.04 1003.80 1003.76 1003.60 1003.56 1003.60 1003.52 1003.52 1003.56 1003.64 1003.68 1003.80 1004.08 1004.24 1004.32 1004.40 1004.44 1004.52 1004.64 1004.84 1005.00 1005.16 1005.32 1005.52 1005.72 1005.96 1006.24 1006.44 1006.60 1006.80 1007.04 1007.28 1007.56 1007.92 1008.24 1008.48 1008.72 1009.04 1009.64 1010.16 1010.40 1010.48 1010.68 1010.72 1010.80 1011.00 1011.20 1011.76 1012.36 1012.84 1013.24 1013.60 1014.24 1014.72 1014.92 1015.08 1015.44 1015.56 1015.80 1016.08 1016.64 1016.56
1004.16 1003.72 1003.40 1003.28 1003.20 1003.16 1003.16 1003.12 1003.16 1003.12 1003.12 1003.20 1003.32 1003.44 1003.64 1003.76 1003.84 1003.92 1004.00 1004.08 1004.20 1004.28 1004.48 1004.64 1004.92 1005.20 1005.44 1005.68 1005.92 1006.20 1006.44 1006.64 1006.88 1007.16 1007.48 1007.84 1008.20 1008.48 1008.68 1008.76 1008.96 1009.56 1010.28 1010.52 1010.68 1010.84 1010.72 1010.76 1011.28 1011.88 1012.44 1012.88 1013.20 1013.76 1014.24 1014.44 1014.52 1014.72 1014.96 1015.40 1015.84 1016.32 1016.56
1003.72 1003.24 1002.92 1002.80 1002.76 1002.76 1002.72 1002.68 1002.64 1002.64 1002.72 1002.76 1002.88 1003.00 1003.12 1003.36 1003.40 1003.44 1003.52 1003.56 1003.68 1003.76 1003.92 1004.12 1004.36 1004.60 1004.84 1005.00 1005.20 1005.48 1005.84 1006.20 1006.52 1006.72 1007.00 1007.40 1007.80 1008.20 1008.44 1008.76 1009.00 1009.08 1009.08 1009.44 1010.16 1010.40 1010.56 1010.44 1010.80 1011.56 1011.96 1012.20 1012.56 1013.08 1013.68 1013.92 1014.20 1014.32 1014.64 1015.12 1015.72 1016.16 1016.32
1003.20 1002.72 1002.44 1002.32 1002.28 1002.24 1002.24 1002.32 1002.36 1002.36 1002.36 1002.36 1002.48 1002.52 1002.64 1002.76 1002.84 1002.88 1002.88 1002.88 1003.00 1003.16 1003.32 1003.48 1003.72 1003.96 1004.12 1004.36 1004.68 1004.92 1005.28 1005.72 1006.08 1006.48 1006.84 1007.20 1007.56 1007.96 1008.20 1008.48 1008.76 1009.08 1009.36 1009.44 1009.52 1009.76 1010.16 1010.36 1010.56 1011.04 1011.40 1011.84 1012.12 1012.64 1013.24 1013.44 1013.88 1014.08 1014.64 1015.20 1015.76 1016.20 1016.36
1002.56 1002.16 1001.96 1001.84 1001.84 1001.80 1001.76 1001.84 1001.80 1001.84 1001.84 1001.88 1001.88 1001.96 1002.04 1002.16 1002.20 1002.28 1002.28 1002.36 1002.40 1002.52 1002.64 1002.84 1003.08 1003.28 1003.52 1003.84 1004.12 1004.28 1004.64 1005.20 1005.68 1006.12 1006.52 1006.92 1007.28 1007.64 1007.92 1008.24 1008.56 1008.84 1009.16 1009.44 1009.64 1009.72 1009.92 1010.12 1010.36 1010.80 1011.20 1011.60 1011.96 1012.48 1012.92 1013.16 1013.56 1014.04 1014.72 1015.56 1016.24 1016.48 1016.56
1002.00 1001.84 1001.72 1001.44 1001.32 1001.32 1001.32 1001.28 1001.24 1001.24 1001.32 1001.32 1001.36 1001.44 1001.56 1001.64 1001.72 1001.76 1001.76 1001.76 1001.84 1001.96 1002.08 1002.24 1002.48 1002.76 1003.00 1003.28 1003.64 1003.76 1004.00 1004.40 1005.04 1005.64 1006.12 1006.56 1007.00 1007.44 1007.80 1008.08 1008.24 1008.64 1009.04 1009.36 1009.64 1009.80 1009.96 1010.16 1010.40 1010.72 1011.28 1011.72 1012.20 1012.80 1013.24 1013.68 1014.12 1014.56 1015.04 1015.56 1016.20 1016.48 1016.56
1001.72 1001.48 1001.32 1001.16 1001.12 1001.08 1001.08 1001.08 1000.96 1000.88 1000.84 1000.88 1000.84 1000.88 1001.04 1001.12 1001.16 1001.12 1001.16 1001.16 1001.20 1001.36 1001.56 1001.76 1001.96 1002.24 1002.48 1002.80 1003.12 1003.28 1003.56 1003.96 1004.48 1005.20 1005.72 1006.24 1006.72 1007.20 1007.60 1007.96 1008.28 1008.52 1008.88 1009.28 1009.60 1009.84 1010.00 1010.24 1010.48 1010.88 1011.28 1011.76 1012.24 1012.68 1013.04 1013.52 1014.08 1014.72 1015.20 1015.76 1016.12 1016.44 1016.60
1001.56 1001.24 1001.04 1000.92 1000.80 1000.72 1000.76 1000.72 1000.60 1000.48 1000.36 1000.32 1000.28 1000.36 1000.52 1000.56 1000.60 1000.52 1000.52 1000.56 1000.76 1001.00 1001.24 1001.32 1001.48 1001.76 1002.12 1002.44 1002.72 1002.92 1003.12 1003.48 1004.04 1004.80 1005.32 1005.88 1006.44 1006.96 1007.40 1007.80 1008.16 1008.52 1008.84 1009.16 1009.56 1009.84 1010.00 1010.28 1010.68 1011.08 1011.40 1011.80 1012.20 1012.52 1012.80 1013.20 1013.76 1014.60 1015.24 1015.76 1016.08 1016.20 1016.32
1001.24 1000.88 1000.64 1000.56 1000.40 1000.20 1000.16 1000.08 1000.00 999.88 999.80 999.72 999.72 999.84 999.92 999.96 999.92 999.92 1000.00 1000.28 1000.56 1000.80 1001.00 1001.12 1001.16 1001.32 1001.68 1002.08 1002.40 1002.64 1002.80 1003.12 1003.64 1004.36 1004.92 1005.44 1006.00 1006.56 1006.96 1007.32 1007.72 1008.20 1008.76 1009.12 1009.60 1009.96 1010.16 1010.56 1011.00 1011.36 1011.60 1011.88 1012.24 1012.56 1012.96 1013.32 1013.84 1014.68 1015.04 1015.64 1016.12 1016.28 1016.48
1000.84 1000.48 1000.16 1000.00 999.92 999.80 999.68 999.64 999.52 999.52 999.48 999.48 999.48 999.44 999.48 999.48 999.48 999.56 999.84 1000.08 1000.28 1000.72 1001.00 1001.08 1001.16 1001.24 1001.52 1001.84 1002.20 1002.40 1002.60 1002.84 1003.32 1004.00 1004.60 1005.16 1005.68 1006.16 1006.72 1007.08 1007.56 1007.96 1008.48 1009.08 1009.60 1010.20 1010.88 1011.60 1011.92 1011.96 1012.08 1012.32 1012.60 1013.00 1013.44 1013.80 1014.08 1014.44 1014.84 1015.32 1015.80 1016.04 1016.20
1000.40 1000.16 999.92 999.72 999.56 999.48 999.40 999.40 999.40 999.40 999.40 999.36 999.28 999.28 999.24 999.20 999.20 999.44 999.68 999.96 1000.28 1000.56 1000.88 1001.12 1001.20 1001.32 1001.48 1001.72 1002.00 1002.24 1002.40 1002.64 1003.20 1003.84 1004.48 1004.92 1005.36 1005.76 1006.32 1006.96 1007.52 1007.96 1008.36 1009.20 1010.16 1011.04 1011.60 1012.20 1012.52 1012.68 1012.84 1013.04 1013.32 1013.64 1013.92 1014.20 1014.44 1014.68 1014.92 1015.16 1015.56 1016.04 1016.24
1000.12 999.92 999.76 999.52 999.28 999.24 999.32 999.36 999.40 999.36 999.32 999.28 999.16 999.04 999.00 999.00 999.08 999.20 999.52 999.92 1000.28 1000.56 1000.80 1000.96 1001.12 1001.36 1001.44 1001.64 1001.88 1002.12 1002.32 1002.64 1003.20 1003.84 1004.60 1005.00 1005.32 1005.76 1006.20 1006.92 1007.48 1008.04 1008.88 1009.76 1010.44 1011.20 1011.88 1012.36 1012.68 1012.96 1013.24 1013.56 1013.80 1014.12 1014.36 1014.60 1014.84 1015.04 1015.24 1015.40 1015.48 1015.52 1015.80
1000.00 999.80 999.56 999.36 999.24 999.24 999.24 999.28 999.32 999.32 999.28 999.20 999.08 998.96 998.88 998.76 998.96 999.04 999.36 999.72 1000.16 1000.44 1000.68 1000.92 1001.12 1001.32 1001.40 1001.60 1001.80 1002.00 1002.24 1002.60 1003.24 1003.88 1004.56 1004.88 1005.24 1005.68 1006.32 1007.04 1007.76 1008.48 1009.04 1009.76 1010.48 1011.08 1011.68 1012.16 1012.48 1012.80 1013.20 1013.52 1013.92 1014.48 1014.80 1015.04 1015.24 1015.40 1015.52 1015.68 1015.88 1016.04 1016.16
999.88 999.76 999.68 999.52 999.36 999.28 999.24 999.20 999.24 999.28 999.24 999.16 999.00 998.84 998.76 998.60 998.72 998.92 999.36 999.60 999.92 1000.32 1000.60 1000.84 1001.08 1001.24 1001.32 1001.52 1001.76 1001.96 1002.20 1002.56 1003.20 1003.92 1004.36 1004.76 1005.16 1005.76 1006.48 1007.28 1008.04 1008.52 1009.08 1009.76 1010.44 1011.04 1011.52 1012.00 1012.36 1012.68 1013.12 1013.48 1014.00 1014.56 1014.92 1015.20 1015.44 1015.68 1015.84 1015.92 1016.00 1016.16 1016.40
1000.40 1000.28 1000.00 999.68 999.44 999.24 999.12 999.12 999.16 999.24 999.24 999.16 998.96 998.80 998.68 998.44 998.68 999.00 999.40 999.80 1000.12 1000.32 1000.52 1000.76 1000.96 1001.20 1001.32 1001.52 1001.76 1002.00 1002.24 1002.68 1003.32 1003.84 1004.36 1004.84 1005.36 1006.12 1006.88 1007.52 1008.04 1008.56 1009.16 1009.88 1010.44 1010.96 1011.56 1012.08 1012.44 1012.72 1013.16 1013.76 1014.32 1014.88 1015.16 1015.36 1015.64 1015.84 1016.00 1016.16 1016.40 1016.68 1016.88
1000.68 1000.48 1000.20 999.84 999.44 999.24 999.12 999.16 999.16 999.20 999.24 999.20 999.00 998.80 998.56 998.44 998.76 999.16 999.48 999.80 1000.12 1000.40 1000.64 1000.88 1001.12 1001.28 1001.44 1001.64 1001.96 1002.24 1002.60 1003.16 1003.56 1003.96 1004.40 1005.16 1005.96 1006.60 1007.16 1007.68 1008.12 1008.68 1009.20 1009.88 1010.56 1011.08 1011.60 1012.36 1013.00 1013.40 1014.00 1014.32 1014.56 1014.76 1014.96 1015.12 1015.32 1015.64 1016.00 1016.48 1016.60 1016.56 1016.36
1000.84 1000.64 1000.40 1000.08 999.72 999.48 999.32 999.20 999.16 999.12 999.20 999.16 999.00 998.76 998.48 998.68 999.16 999.60 999.92 1000.24 1000.52 1000.72 1000.88 1001.00 1001.28 1001.44 1001.64 1001.84 1002.16 1002.60 1003.00 1003.44 1003.80 1004.36 1005.40 1006.16 1006.60 1007.08 1007.44 1007.80 1008.16 1008.64 1009.28 1010.04 1010.64 1011.28 1012.08 1012.88 1013.56 1014.04 1014.12 1014.28 1014.36 1014.52 1014.92 1015.16 1015.24 1015.48 1015.60 1015.92 1016.00 1015.96 1015.56
1000.88 1000.76 1000.52 1000.28 1000.20 1000.00 999.76 999.48 999.24 999.16 999.20 999.20 999.04 998.84 998.80 999.20 999.64 1000.04 1000.24 1000.44 1000.68 1000.88 1001.08 1001.20 1001.36 1001.68 1002.04 1002.36 1002.72 1003.16 1003.72 1004.28 1004.88 1005.60 1006.16 1006.68 1007.12 1007.52 1007.84 1008.12 1008.56 1009.20 1009.80 1010.40 1011.04 1011.92 1012.64 1013.28 1013.60 1013.64 1013.96 1014.36 1014.52 1014.68 1014.88 1015.04 1015.12 1015.16 1015.24 1015.40 1015.52 1015.32 1014.88
1001.00 1000.80 1000.64 1000.60 1000.52 1000.36 1000.20 999.76 999.44 999.20 999.16 999.16 999.08 999.00 999.20 999.60 1000.00 1000.28 1000.52 1000.64 1000.76 1001.04 1001.40 1001.84 1002.28 1002.56 1002.88 1003.20 1003.52 1004.12 1004.60 1005.08 1005.64 1006.36 1006.76 1007.12 1007.48 1007.84 1008.24 1008.76 1009.24 1009.84 1010.44 1011.00 1011.44 1012.00 1012.44 1013.00 1013.36 1013.68 1014.00 1014.20 1014.36 1014.48 1014.64 1014.88 1015.00 1015.12 1015.12 1015.32 1015.44 1015.16 1015.20
1001.20 1000.92 1000.64 1000.52 1000.40 1000.32 1000.24 999.96 999.60 999.28 999.12 999.08 999.00 999.04 999.32 999.68 1000.00 1000.28 1000.52 1000.68 1001.04 1001.40 1001.88 1002.20 1002.56 1003.04 1003.36 1003.72 1004.04 1004.68 1005.32 1005.88 1006.32 1006.84 1007.40 1007.80 1008.00 1008.40 1008.84 1009.32 1009.88 1010.32 1010.80 1011.12 1011.44 1011.92 1012.32 1012.76 1013.12 1013.56 1013.80 1013.88 1014.00 1014.28 1014.52 1014.72 1014.76 1014.92 1015.08 1015.08 1015.16 1015.12 1015.08
1000.96 1000.68 1000.32 1000.12 1000.04 999.84 999.72 999.52 999.36 999.32 999.12 999.08 999.04 999.12 999.44 999.80 1000.08 1000.32 1000.56 1000.92 1001.28 1001.84 1002.20 1002.60 1003.08 1003.64 1004.00 1004.36 1004.72 1005.24 1005.72 1006.16 1006.60 1007.12 1007.60 1008.28 1008.72 1008.96 1009.32 1009.80 1010.24 1010.68 1010.92 1011.20 1011.56 1011.92 1012.24 1012.64 1012.92 1013.16 1013.40 1013.52 1013.76 1014.04 1014.40 1014.56 1014.76 1014.96 1015.12 1015.00 1014.96 1015.00 1014.96
1000.88 1000.40 999.80 999.64 999.64 999.60 999.52 999.36 999.36 999.28 999.20 999.12 999.08 999.24 999.52 999.84 1000.12 1000.44 1000.80 1001.16 1001.36 1002.04 1002.72 1002.96 1003.40 1003.96 1004.48 1004.80 1005.20 1005.72 1006.08 1006.40 1006.92 1007.44 1007.92 1008.48 1009.00 1009.60 1009.88 1010.12 1010.52 1010.80 1010.92 1011.28 1011.60 1011.88 1012.24 1012.48 1012.76 1012.96 1013.20 1013.40 1013.64 1013.96 1014.24 1014.44 1014.68 1014.76 1014.76 1014.76 1014.80 1014.80 1014.80
1000.88 1000.44 999.92 999.64 999.48 999.36 999.36 999.40 999.40 999.32 999.20 999.16 999.16 999.36 999.60 999.88 1000.24 1000.60 1000.96 1001.36 1001.92 1002.44 1003.00 1003.36 1003.72 1004.28 1004.76 1005.08 1005.60 1006.04 1006.40 1006.88 1007.28 1007.76 1008.24 1008.56 1009.04 1009.64 1010.20 1010.48 1010.64 1010.88 1011.20 1011.48 1011.72 1011.92 1012.24 1012.56 1012.84 1013.08 1013.36 1013.60 1013.80 1013.84 1014.00 1014.20 1014.32 1014.44 1014.52 1014.60 1014.68 1014.80 1015.00
1001.04 1000.68 1000.32 999.96 999.68 999.44 999.40 999.32 999.36 999.32 999.24 999.16 999.24 999.48 999.72 1000.08 1000.52 1000.88 1001.28 1001.52 1002.16 1002.60 1003.12 1003.56 1004.04 1004.48 1004.88 1005.36 1005.76 1006.24 1006.76 1007.28 1007.76 1008.12 1008.52 1009.04 1009.52 1010.08 1010.52 1010.76 1010.96 1011.12 1011.36 1011.60 1011.84 1012.16 1012.48 1012.72 1013.00 1013.20 1013.40 1013.64 1013.76 1013.76 1013.84 1013.96 1014.08 1014.20 1014.44 1014.72 1014.92 1015.08 1015.20
1001.60 1001.04 1000.64 1000.28 1000.00 999.64 999.48 999.48 999.40 999.36 999.36 999.28 999.40 999.64 999.96 1000.44 1001.08 1001.72 1002.12 1002.44 1002.68 1002.80 1003.16 1003.64 1004.12 1004.56 1005.04 1005.48 1006.00 1006.52 1006.88 1007.40 1007.88 1008.28 1008.68 1009.24 1010.04 1010.60 1010.88 1011.04 1011.20 1011.36 1011.52 1011.80 1012.20 1012.40 1012.60 1012.76 1012.92 1013.16 1013.28 1013.32 1013.36 1013.52 1013.64 1013.84 1014.12 1014.40 1014.72 1014.92 1015.08 1015.24 1015.28
1001.88 1001.44 1001.04 1000.60 1000.32 999.92 999.72 999.60 999.56 999.52 999.48 999.48 999.64 999.96 1000.40 1001.16 1001.80 1002.12 1002.52 1002.80 1003.12 1003.36 1003.64 1003.92 1004.28 1004.64 1005.20 1005.68 1006.16 1006.64 1007.08 1007.44 1007.84 1008.24 1008.80 1009.52 1010.12 1010.64 1010.96 1011.20 1011.44 1011.56 1011.76 1012.08 1012.32 1012.56 1012.72 1012.92 1013.00 1013.00 1013.08 1013.24 1013.36 1013.44 1013.68 1014.04 1014.32 1014.60 1014.80 1014.96 1015.12 1015.16 1015.24
Wind_Speed
8 8 8 8 8 8 8 9 8 8 8 8 9 9 8 8 8 10 9 9 9 10 10 11 12 11 11 8 8 8 6 5 6 7 8 8 9 10 10 9 9 9 5 1 4 8 9 10 11 8 9 8 7 8 7 8 7 8 8 7 6 6 11
7 7 8 8 8 8 8 9 9 8 8 9 9 9 7 7 9 10 10 9 9 10 9 10 11 11 11 10 11 10 9 8 7 7 8 8 10 10 11 10 9 7 6 7 5 6 6 9 10 9 8 10 9 9 7 8 7 6 6 6 6 6 7
7 6 8 8 9 9 9 9 9 8 8 9 10 10 9 9 9 10 10 10 11 10 9 9 9 10 9 8 10 11 10 9 9 9 9 11 9 10 11 10 11 8 7 10 7 8 8 8 8 9 10 9 7 7 7 8 8 7 6 6 6 7 6
9 9 8 9 9 9 9 9 6 7 8 8 8 9 9 8 9 9 10 10 10 9 10 10 10 9 8 8 9 9 9 8 9 9 10 11 11 11 12 11 10 11 8 8 10 6 7 8 9 6 6 8 5 7 6 7 7 7 7 7 7 7 6
6 7 8 9 9 9 9 10 10 9 7 6 7 8 8 7 7 9 10 10 9 9 9 9 10 10 9 8 9 8 8 8 9 9 9 10 10 10 10 9 10 10 8 10 11 10 7 9 5 5 7 9 9 6 5 4 7 6 7 6 5 6 6
6 7 9 9 9 9 9 9 8 9 11 10 7 7 7 7 8 9 9 9 9 8 8 8 9 8 8 9 11 10 9 9 10 10 10 11 10 9 8 9 9 9 9 10 10 11 9 7 8 6 6 9 9 8 7 5 4 3 4 5 5 5 5
12 12 12 11 9 9 9 9 9 9 8 8 8 8 8 8 8 8 7 7 7 7 7 8 8 7 7 9 10 11 11 10 10 10 11 12 11 10 9 9 9 9 11 10 10 9 10 9 8 9 7 8 8 7 7 8 6 6 6 6 7 7 6
12 13 12 11 10 10 9 9 9 8 8 8 9 9 9 8 8 8 7 7 7 7 7 8 8 7 7 9 10 10 10 10 10 10 11 10 10 10 10 10 9 9 10 10 10 10 9 7 8 5 5 7 8 6 4 6 8 9 8 8 8 9 7
13 14 11 9 9 9 8 8 8 8 8 9 11 11 12 12 11 10 9 8 8 8 8 8 8 8 8 10 12 14 12 12 12 10 10 10 10 11 11 10 9 9 10 9 10 9 8 9 8 8 10 10 10 12 11 9 8 6 6 7 7 7 7
14 14 11 10 9 8 8 8 7 10 16 14 10 10 10 11 12 11 10 9 9 9 9 9 10 10 14 14 16 16 17 17 18 19 15 12 12 12 12 12 11 11 10 11 11 12 11 11 11 12 12 11 10 9 7 8 9 8 6 5 4 3 2
13 12 8 9 10 9 8 7 6 12 16 19 22 13 10 10 10 10 10 11 11 10 10 10 11 10 12 14 15 15 18 19 19 19 20 20 19 17 15 14 13 12 12 12 12 11 11 11 11 11 11 11 10 10 10 9 8 8 7 7 7 6 1
13 11 9 7 8 9 9 8 12 19 18 20 21 18 12 10 10 10 10 11 12 11 11 11 10 9 9 10 12 12 13 16 19 20 21 20 19 20 20 18 16 14 12 11 11 11 12 10 10 10 10 9 9 9 9 8 7 7 7 6 6 4 4
12 11 10 9 9 8 9 9 13 18 19 20 21 22 18 8 9 10 10 11 12 11 11 10 10 10 10 11 18 14 12 12 14 19 23 21 22 21 21 19 19 16 14 13 11 11 11 11 10 10 9 10 9 8 9 8 7 6 5 4 4 4 2
13 11 10 9 9 8 7 7 10 15 18 19 20 20 16 8 10 11 11 12 12 11 12 12 11 11 11 10 11 11 12 12 13 13 14 14 14 13 17 20 21 19 17 14 12 11 12 9 9 10 9 9 9 10 9 9 8 6 6 4 3 1 0
11 9 9 8 8 7 7 7 14 16 18 19 21 21 17 10 10 10 10 10 11 12 12 11 11 11 11 11 12 11 14 13 13 13 13 13 14 13 13 13 13 12 11 10 8 8 8 8 9 8 8 8 7 7 5 6 6 6 5 5 2 2 2
8 8 8 7 7 7 8 8 14 16 17 19 19 20 11 9 9 10 10 11 11 11 10 10 11 11 11 11 11 16 21 18 13 14 14 14 13 12 11 11 11 13 10 9 7 6 6 5 6 10 8 8 8 8 8 9 8 8 6 5 1 3 3
6 5 5 6 6 7 7 7 10 15 17 19 21 16 9 9 9 10 10 10 10 9 9 9 10 10 10 10 11 16 24 24 19 14 15 14 14 12 11 10 10 18 17 15 13 12 13 14 15 16 17 17 16 11 10 8 7 5 6 5 3 4 2
9 8 7 8 8 7 7 7 9 16 17 19 20 17 10 9 10 10 10 9 7 6 6 9 15 13 10 11 11 19 25 26 21 14 15 14 15 16 13 10 9 9 11 19 17 16 16 16 15 17 17 17 17 17 11 9 8 6 7 5 5 6 3
9 8 7 6 7 10 10 8 10 16 17 20 21 16 9 9 9 10 9 7 6 5 6 6 10 17 13 11 12 22 25 27 21 14 14 14 14 15 15 12 13 12 10 11 10 10 11 10 12 9 8 10 17 16 9 6 7 7 7 7 6 5 1
9 9 7 6 6 7 7 8 8 9 14 13 13 14 8 6 6 6 6 6 6 6 4 5 5 11 17 17 19 22 24 26 26 14 13 12 12 13 14 10 12 12 10 10 9 7 8 10 8 8 8 7 8 7 5 6 6 7 7 7 7 6 5
9 8 8 8 7 7 6 4 5 5 11 11 14 16 14 7 6 5 6 6 6 6 6 6 6 5 14 19 20 21 24 24 25 19 12 12 11 11 11 13 11 13 15 9 10 11 9 7 6 6 6 6 6 5 5 4 4 4 5 7 7 6 6
10 8 7 7 7 4 3 4 4 4 6 10 13 14 15 8 5 7 7 6 5 6 5 6 6 6 13 19 20 20 22 23 23 22 10 11 15 18 23 14 10 9 9 10 10 9 8 7 6 6 5 5 4 4 4 4 3 3 3 3 5 7 7
7 6 6 5 4 3 4 4 3 6 5 9 13 13 13 13 6 12 7 7 7 7 6 5 6 7 16 19 20 20 20 20 24 19 12 20 21 21 23 15 9 10 11 9 9 9 8 7 6 6 6 5 5 4 4 4 3 3 3 1 1 0 2
5 5 5 6 6 4 4 3 2 4 8 8 11 12 11 11 11 13 7 6 6 6 7 7 7 9 18 18 18 19 19 19 21 12 20 21 21 23 20 11 10 10 10 9 8 8 7 7 5 6 5 5 5 5 5 5 4 3 3 2 0 2 3
7 7 7 6 6 5 4 1 2 3 4 9 10 10 11 8 14 13 11 6 5 7 6 8 13 16 18 17 17 17 17 16 21 22 20 20 23 20 10 10 9 10 10 9 9 7 6 6 5 4 5 6 7 6 5 4 3 2 1 1 0 2 3
7 7 7 7 6 5 3 1 2 4 2 4 7 6 9 9 13 13 11 8 7 9 12 14 15 16 17 15 13 9 5 8 13 21 20 21 19 10 10 9 9 9 9 8 7 7 7 6 5 8 6 6 6 6 5 4 3 3 0 1 2 1 4
7 7 7 7 6 5 5 4 4 4 2 3 4 4 2 6 7 10 10 8 7 8 7 10 10 8 10 9 12 14 16 16 18 14 12 10 9 8 8 8 8 9 8 8 7 6 7 6 5 5 7 5 5 5 3 4 4 5 4 5 4 2 3
7 7 7 6 5 5 6 6 4 3 1 3 4 2 6 7 7 5 6 7 6 6 6 7 10 11 6 6 9 10 8 8 9 11 10 9 8 8 8 10 12 10 7 6 7 7 7 7 6 6 5 5 5 6 4 5 4 3 2 2 2 1 1
7 7 6 5 4 4 4 6 4 3 2 2 5 1 6 7 6 6 5 9 12 8 6 7 8 8 8 9 10 10 10 10 10 9 9 10 9 8 8 8 7 8 7 8 9 9 8 7 6 6 5 6 6 5 6 3 3 2 4 1 2 1 1
8 8 7 6 4 2 4 5 4 4 2 4 5 8 12 12 12 12 10 14 15 8 8 8 8 7 8 8 9 9 9 9 10 10 9 8 9 8 8 7 7 7 7 7 8 8 8 7 7 7 7 6 6 5 4 4 5 2 2 2 2 1 1
15 13 14 8 5 5 8 12 7 4 4 5 5 13 16 16 16 17 18 17 12 8 7 8 8 7 7 8 9 9 9 9 9 9 9 8 7 6 8 7 7 6 6 7 8 7 7 7 8 8 7 7 7 7 5 3 2 3 4 2 2 1 1
15 18 14 6 6 5 4 2 1 2 4 6 7 16 17 18 18 19 18 16 14 9 7 7 8 8 7 8 9 8 8 8 9 8 9 8 7 6 5 7 7 6 7 7 7 7 7 7 7 7 7 7 7 6 7 6 5 3 3 1 0 1 1
17 18 16 15 13 10 5 2 1 1 4 6 9 18 18 19 20 19 20 17 9 8 7 6 7 8 7 8 8 7 7 7 8 8 8 7 8 7 5 5 6 6 7 6 7 7 7 7 7 6 6 6 6 7 6 6 6 4 2 1 0 0 2
18 18 16 14 14 11 8 6 2 2 6 7 12 18 19 18 14 18 17 12 9 8 8 7 7 7 7 7 7 7 7 7 7 7 7 7 6 6 6 6 5 6 7 6 6 7 6 6 7 6 7 7 6 5 6 5 4 3 2 1 1 1 2
9 11 15 12 9 11 11 7 4 5 6 8 15 18 20 18 11 9 6 5 4 6 7 8 8 8 7 8 8 7 8 8 8 7 7 8 7 6 6 6 6 6 6 7 6 6 6 6 7 6 6 7 8 6 5 5 4 4 3 3 1 1 2
8 7 8 15 14 15 11 9 7 5 6 9 15 19 17 8 7 7 6 6 4 5 5 6 7 7 7 7 7 7 7 7 8 7 7 7 8 8 7 6 6 6 6 6 6 6 7 6 5 5 6 5 6 5 6 4 5 4 3 2 3 3 3
Wind_Direction
233 235 246 258 264 260 249 245 238 229 222 210 210 213 222 229 220 220 223 221 219 217 219 219 223 221 219 209 209 219 218 206 199 199 205 204 206 211 210 202 201 201 161 77 153 159 166 168 162 173 175 167 170 179 173 163 170 174 184 189 191 200 223
243 239 237 245 258 267 261 251 244 223 211 212 214 212 211 227 226 227 229 222 220 215 211 213 217 220 217 209 208 210 214 210 206 200 204 207 207 212 213 207 201 197 156 162 140 128 140 157 168 167 177 170 167 178 171 173 176 180 180 190 187 198 209
237 244 251 250 246 250 253 247 246 242 224 215 211 208 207 209 220 230 231 228 225 223 219 216 213 214 207 201 203 206 207 202 204 205 208 210 209 213 214 209 203 183 169 163 165 155 142 162 168 172 175 173 171 170 169 174 184 188 195 193 194 199 205
236 234 231 237 240 247 261 266 253 231 231 231 220 211 206 203 210 222 233 234 231 225 220 220 220 216 205 196 200 202 197 196 198 200 204 209 208 210 210 205 200 196 165 164 152 177 157 163 162 174 172 169 150 164 174 182 190 190 194 197 201 202 205
250 242 234 231 230 230 232 238 248 260 251 230 230 225 217 213 214 222 224 227 232 233 229 225 221 216 205 198 203 204 199 194 196 197 199 203 204 206 205 200 198 193 168 161 166 159 164 164 134 124 159 166 165 168 178 185 192 194 190 194 195 195 205
254 246 244 235 233 232 233 238 239 237 247 253 245 238 228 219 219 222 219 217 219 226 231 232 230 222 201 199 202 207 203 197 196 196 198 200 201 201 198 196 197 187 182 168 168 158 149 168 158 155 176 169 167 168 176 192 197 198 202 197 214 213 210
271 265 248 237 229 226 224 227 228 230 229 232 239 242 241 235 225 218 214 210 207 208 221 230 232 223 203 204 206 205 201 197 196 197 200 199 198 193 190 193 193 188 184 179 164 166 164 154 169 166 161 179 168 175 179 181 182 211 215 213 205 215 214
273 264 244 234 229 225 222 218 224 227 231 233 235 242 249 246 241 235 225 215 205 204 213 222 225 223 210 207 211 208 206 196 196 198 201 200 192 187 187 192 192 189 184 181 177 169 165 155 154 149 158 158 156 164 187 190 187 201 200 205 205 208 204
278 270 248 237 233 229 221 217 216 221 227 234 234 229 233 238 239 235 230 223 219 212 210 214 219 222 222 216 215 213 208 203 200 192 199 199 188 187 186 188 187 188 187 184 180 180 163 157 162 165 162 170 175 184 191 189 198 205 194 184 190 204 198
280 271 251 237 234 236 232 228 224 221 221 223 229 232 233 229 225 220 220 223 221 216 215 220 223 223 220 221 221 218 214 211 208 206 203 192 186 187 186 186 184 187 189 186 185 187 178 173 180 178 179 176 183 177 178 190 193 197 197 189 189 203 205
280 270 246 240 237 233 233 232 226 229 234 234 235 233 228 228 228 222 220 221 223 228 225 223 218 215 212 216 220 219 216 213 207 201 204 200 193 191 185 183 185 190 188 188 192 188 184 186 181 179 175 178 172 175 183 187 185 181 180 180 175 201 291
278 278 263 251 245 241 237 236 233 241 240 240 239 235 230 225 222 219 219 219 220 222 224 221 213 207 205 208 212 212 214 213 202 200 199 194 192 193 192 189 184 182 184 191 190 189 194 184 182 171 169 176 172 177 178 188 183 173 174 171 176 181 174
274 270 260 248 242 235 230 229 229 234 237 240 243 245 242 226 224 223 222 222 223 222 222 219 212 210 208 209 207 206 202 203 204 198 195 190 190 191 192 194 196 191 187 183 184 192 193 192 175 169 180 174 171 169 176 177 175 169 160 156 156 190 164
268 263 256 249 246 243 231 227 231 237 242 246 247 246 245 233 228 228 227 226 222 221 219 214 209 212 211 204 203 200 194 194 197 195 192 187 188 191 193 192 192 193 195 193 190 187 190 184 171 179 170 174 166 171 174 171 170 151 142 136 146 99 311
265 256 252 240 231 230 236 224 242 243 243 250 252 250 247 234 234 232 233 231 230 229 224 213 212 208 206 200 200 196 186 186 188 187 188 187 189 189 191 190 192 192 188 191 191 194 184 172 171 167 160 157 152 149 147 150 140 128 120 106 73 19 262
256 255 246 238 224 224 235 240 247 250 250 249 248 248 244 240 235 238 234 235 234 232 220 214 209 210 207 198 196 199 187 180 179 182 184 185 185 185 187 191 191 185 180 180 180 180 173 159 146 140 133 131 123 116 110 97 90 79 80 81 73 251 290
284 269 262 257 251 241 245 244 241 246 250 250 251 251 244 239 238 240 239 233 230 217 209 207 207 204 204 194 196 193 193 186 173 180 181 180 180 179 179 184 182 189 183 177 170 162 153 145 145 143 143 139 133 130 127 114 104 124 123 117 189 259 261
282 274 256 251 252 243 242 245 238 249 249 251 254 254 246 239 239 237 237 231 212 200 199 204 204 199 193 191 191 191 193 190 179 177 178 176 174 173 177 176 170 176 186 185 176 166 156 155 154 154 150 147 145 143 133 134 160 165 128 158 186 232 229
277 270 254 246 244 247 249 251 251 254 253 256 260 264 254 248 239 236 225 205 197 183 185 197 203 201 192 186 184 191 195 192 181 174 176 175 171 174 176 174 166 170 168 177 168 166 160 159 159 153 149 159 155 148 137 135 144 139 148 173 191 204 310
275 271 266 257 255 258 258 265 270 276 283 288 293 292 287 264 246 213 194 184 180 168 163 177 184 203 189 182 186 192 194 195 181 171 173 171 174 172 175 161 164 166 159 159 158 130 103 94 88 99 95 97 116 110 104 120 130 147 154 168 177 182 179
278 275 278 277 274 271 272 284 292 290 292 288 287 284 281 264 235 197 179 178 168 164 160 167 180 169 186 184 188 193 198 196 180 172 166 173 174 173 154 151 158 161 155 133 118 115 115 114 106 103 102 103 103 104 99 97 110 132 150 159 171 180 203
278 279 278 275 272 281 293 289 287 291 296 296 292 287 278 269 211 187 166 159 151 156 158 167 168 156 185 186 188 194 201 195 178 167 159 169 167 162 163 156 149 139 117 120 127 126 127 133 129 128 130 129 127 120 119 117 125 140 144 155 170 180 194
268 268 273 284 293 300 304 303 302 298 299 301 296 287 280 271 239 182 162 160 162 168 161 151 157 166 180 187 188 194 199 196 169 163 161 174 170 166 155 140 133 122 128 127 135 138 141 145 143 139 143 143 133 128 128 132 132 128 125 117 99 89 160
330 325 318 309 303 295 284 276 287 290 298 302 293 287 276 275 201 181 155 164 154 152 157 154 160 169 180 185 188 191 196 188 167 153 167 172 168 156 142 129 130 132 133 135 136 144 146 146 145 135 140 146 139 138 136 132 135 132 131 122 65 343 318
332 322 309 307 302 297 290 284 322 287 300 303 294 286 288 254 184 174 151 140 143 153 156 158 159 169 176 181 183 184 190 175 156 155 160 165 152 137 125 135 136 136 134 140 149 145 137 132 133 129 116 101 106 111 102 97 81 80 75 88 117 246 258
324 323 318 311 307 310 317 347 292 292 298 303 297 293 291 191 174 161 156 133 140 144 148 156 160 167 171 170 171 166 127 117 140 151 156 138 125 121 130 132 135 135 141 143 139 137 139 131 113 92 106 109 113 118 140 134 126 113 136 161 192 268 280
323 318 319 311 315 326 332 299 283 289 326 306 308 301 237 153 138 130 117 106 122 133 142 151 154 160 155 150 145 120 123 131 140 136 110 105 117 119 127 131 136 142 137 137 133 125 112 113 104 100 107 116 122 127 162 164 152 147 176 170 194 159 292
314 315 311 317 331 332 330 313 279 276 299 310 307 325 95 107 115 106 111 117 118 117 129 140 146 140 109 107 102 109 93 87 82 101 112 109 111 113 111 112 107 94 99 101 108 105 111 110 125 125 128 127 132 149 156 149 132 137 144 143 121 62 293
319 316 321 316 321 324 316 304 320 268 203 264 276 153 116 115 112 116 112 124 127 118 92 80 85 88 102 103 109 103 109 110 106 95 104 108 105 107 108 106 116 122 123 128 126 132 136 136 128 128 131 141 139 147 152 154 131 134 128 109 105 157 241
331 326 313 306 295 286 298 300 290 298 243 231 249 140 125 123 124 127 129 133 120 104 105 106 100 101 113 118 110 110 107 111 108 108 98 100 105 104 108 109 109 118 127 127 129 134 132 137 133 135 148 145 141 139 143 169 150 172 152 118 159 168 265
340 325 312 301 285 276 268 278 280 277 240 209 218 138 130 130 132 133 131 122 111 100 106 113 109 106 102 106 111 113 120 119 120 116 112 106 108 108 113 116 116 125 125 122 126 126 128 135 140 146 152 145 147 146 158 155 153 140 149 163 170 165 267
343 341 351 348 302 289 276 266 221 268 201 197 181 137 132 136 139 136 133 128 113 106 105 110 114 113 112 118 118 121 121 121 120 121 119 120 113 111 111 123 128 134 124 125 123 129 133 136 137 138 138 136 140 143 152 164 168 163 150 206 104 205 210
349 359 17 27 28 22 27 22 47 207 187 181 164 139 138 140 139 137 132 117 108 116 115 113 111 114 119 121 124 128 121 116 119 122 125 126 128 126 124 113 121 119 115 123 132 128 131 133 132 129 125 132 144 144 145 148 148 151 136 128 83 343 342
346 351 4 18 13 22 24 18 48 129 159 165 149 143 141 138 137 134 130 126 132 130 127 122 118 119 122 119 120 119 117 116 115 117 116 112 101 102 108 115 114 118 126 124 126 125 130 129 134 137 136 144 145 144 135 136 140 122 107 88 157 206 264
333 340 352 9 3 23 28 34 46 115 144 146 146 143 137 128 119 110 97 88 95 125 130 130 127 127 126 128 126 126 127 127 126 125 123 122 120 114 118 123 127 126 126 124 125 127 131 141 143 149 148 146 145 136 120 127 126 130 143 162 219 202 266
333 336 337 3 4 21 33 48 66 96 129 142 145 135 121 108 107 105 102 104 97 98 101 106 117 122 122 120 118 121 123 130 133 132 126 128 133 139 142 140 137 135 125 126 126 135 139 131 131 135 129 111 104 122 134 140 148 160 176 182 197 204 216